TimeEDT,TemperatureF,Dew PointF,Humidity,Sea Level PressureIn,VisibilityMPH,Wind Direction,Wind SpeedMPH,Gust SpeedMPH,PrecipitationIn,Events,Conditions,WindDirDegrees,DateUTC
12:53 AM,72.0,71.1,97,29.87,5.0,Calm,Calm,-,N/A,,Partly Cloudy,0,2013-07-25 04:53:00
1:53 AM,72.0,71.1,97,29.87,3.0,Calm,Calm,-,N/A,,Clear,0,2013-07-25 05:53:00
2:53 AM,72.0,71.1,97,29.86,10.0,Calm,Calm,-,N/A,,Clear,0,2013-07-25 06:53:00
3:53 AM,72.0,69.1,91,29.86,10.0,Calm,Calm,-,N/A,,Clear,0,2013-07-25 07:53:00
4:53 AM,70.0,68.0,93,29.87,10.0,NNW,3.5,-,N/A,,Clear,330,2013-07-25 08:53:00
5:53 AM,68.0,66.9,96,29.87,10.0,Calm,Calm,-,N/A,,Clear,0,2013-07-25 09:53:00
6:53 AM,69.1,66.9,93,29.89,10.0,NNW,4.6,-,N/A,,Clear,340,2013-07-25 10:53:00
7:53 AM,69.1,68.0,96,29.91,10.0,Calm,Calm,-,N/A,,Clear,0,2013-07-25 11:53:00
8:53 AM,73.9,68.0,82,29.92,10.0,Calm,Calm,-,N/A,,Clear,0,2013-07-25 12:53:00
9:53 AM,77.0,66.9,71,29.93,10.0,NNE,5.8,-,N/A,,Clear,30,2013-07-25 13:53:00
10:53 AM,79.0,66.9,66,29.93,10.0,NNE,6.9,-,N/A,,Clear,20,2013-07-25 14:53:00
11:53 AM,81.0,68.0,65,29.93,10.0,Calm,Calm,-,N/A,,Clear,0,2013-07-25 15:53:00
12:53 PM,84.0,66.9,56,29.94,10.0,NNW,6.9,-,N/A,,Clear,340,2013-07-25 16:53:00
1:53 PM,84.0,66.9,56,29.95,10.0,North,9.2,-,N/A,,Clear,350,2013-07-25 17:53:00
2:53 PM,84.9,68.0,57,29.94,10.0,NW,6.9,-,N/A,,Clear,320,2013-07-25 18:53:00
3:53 PM,87.1,64.9,48,29.94,10.0,Variable,3.5,-,N/A,,Clear,0,2013-07-25 19:53:00
4:53 PM,87.1,63.0,44,29.94,10.0,WNW,5.8,-,N/A,,Clear,300,2013-07-25 20:53:00
5:53 PM,88.0,64.0,45,29.94,10.0,NW,5.8,-,N/A,,Clear,310,2013-07-25 21:53:00
6:53 PM,87.1,63.0,44,29.94,10.0,North,5.8,-,N/A,,Clear,360,2013-07-25 22:53:00
7:53 PM,84.9,64.0,49,29.95,10.0,North,4.6,-,N/A,,Clear,350,2013-07-25 23:53:00
8:53 PM,75.0,69.1,82,29.96,10.0,Calm,Calm,-,N/A,,Clear,0,2013-07-26 00:53:00
9:53 PM,73.9,70.0,87,29.97,10.0,Calm,Calm,-,N/A,,Scattered Clouds,0,2013-07-26 01:53:00
10:53 PM,73.0,69.1,87,29.99,10.0,NNE,3.5,-,N/A,,Clear,30,2013-07-26 02:53:00
11:53 PM,71.1,69.1,93,30.00,10.0,Calm,Calm,-,N/A,,Clear,0,2013-07-26 03:53:00